Location: Rounton
(54.4000°N, 1.3500°W)
Time: 22:47:24
(UTC+00:00)

Explorer 7 - Pass Details

Date: 02 December 2021
Orbit: 483 x 674 km, 50.3° (Epoch: 17 January)

Event Time Altitude Azimuth Distance (km) Brightness Sun altitude
Rises 08:23:11 0° 247° (WSW) 2,734 10.1 1.2°
Reaches altitude 10° 08:25:33 10° 241° (WSW) 1,807 9.3 1.4°
Maximum altitude 08:29:25 42° 170° (S) 752 8.2 1.9°
Drops below altitude 10° 08:33:06 10° 99° (E) 1,719 10.4 2.2°
Sets 08:35:19 0° 92° (E) 2,583 11.1 2.5°
